CRC

Crooked River Challenge - Loft Fly

Station: Inventory - T Race

Distance: 0.1 Miles    

Release: 12-Jun-2019 06:00

Weather Release:    Arrival:

Wind at Release:     Wind at Arrival:

Temp at Release: °    Temp at Arrival: °

Lofts: 148

Birds: 740

Clocked: 738

Good Luck to Everyone!
Drops Pos Breeder Pigeon Name Color Sex Ent Arrival Speed To Win Eligible OpBOpC
1 Kamp - WA 4201-AU19-LKC BB H 1 08:54:15.79 1.010 00:00:00 Yes
2 K T Loft - IN 0405-AU19-KT BB H 1 08:54:46.40 1.007 00:00:31 Yes
3 Q-Ba Family Loft - TX 0720-AU19-SAIN BB H 1 08:55:09.21 1.005 00:00:52 Yes
3 Genesis Syndicate Loft - AZ 0708-AU19-GEN BBSP H 1 08:55:10.68 1.005 00:00:52 Yes
5 Eastern Pearl Loft - VA 0523-AU19-EPL ๐Ÿˆš๏ธ้‡523=042x240 BBWF C 1 08:55:17.23 1.004 00:01:02 Yes
5 385 Connection - SC 9071-AU19-GRPC RD H 1 08:55:19.15 1.004 00:01:02 Yes
7 Carini / Codd - OR 0936-AU19-CARI BC H 1 08:55:29.07 1.003 00:01:13 Yes
7 Jc Loft Of Nj - NJ 2095-IF19-LCM BC H 1 08:55:32.23 1.003 00:01:13 Yes
9 Ganus Family Loft - IN 0615-AU19-GFL BBWF C 1 08:55:50.21 1.001 00:01:34 Yes
10 Y Mtn Loft - TN 26789-AU19-YMTN BB C 1 08:55:58.02 1.000 00:01:45 Yes
10 Crazy Als Lofts - CO 0135-AU19-GJC BB C 1 08:56:01.48 1.000 00:01:45 Yes
12 Paul Yahiku - OR 10897-AU19-FOYS SIL C 1 08:56:10.69 0.999 00:01:55 Yes
13 S F L - WV 0100-AU19-SFL Pair 2 BB H 1 08:56:16.58 0.998 00:02:06 Yes
13 Duane Gragg - CA 0921-AU19-KEY BB H 1 08:56:19.22 0.998 00:02:06 Yes
15 Lin Family Loft - GA 2054-AU19-LIN ๆž—-Lin43 X Lin1109 BBWF H 1 08:56:29.18 0.997 00:02:16 Yes
15 Yendez Loft - TX 0305-AU19-YEND BBWF H 1 08:56:36.80 0.997 00:02:16 Yes
17 Linda Loft - PA 0692-IF19-LU 637-Lu-542 BBWF H 1 08:56:40.85 0.996 00:02:27 Yes
17 Baptista - IL 0084-AU19-FAMP BB H 1 08:56:43.11 0.996 00:02:27 Yes
17 Amer Loft - GA 0212-IF19-AFL BB C 1 08:56:46.04 0.996 00:02:27 Yes
20 Linda Loft - PA 0687-IF19-LU Fredy-Lu-556 BC H 2 08:56:51.80 0.995 00:02:38 Yes
20 A P C Loft - TX 19152-AU19-APC BBSP C 1 08:56:52.37 0.995 00:02:38 Yes
22 Andy Skwiat - IN 0010-AU19-ANDY BB H 1 08:57:23.42 0.992 00:03:10 Yes
22 Baldwin & Tilson - NC 9052-AU19-TENT 1148-8036 BB H 1 08:57:26.21 0.992 00:03:10 Yes
24 Baldwin & Tilson - NC 9002-AU19-TENT KW-362 BB H 2 08:57:45.66 0.990 00:03:31 Yes
25 Highland Loft - NY 9058-AU19-DZ BCSP H 1 08:58:03.07 0.988 00:03:53 Yes
26 Jeff Earthman - NV 1917-AU19-JEDD 1158-833 BB H 1 08:58:16.49 0.987 00:04:04 Yes
27 Dayrit Lofts - CA 26171-AU19-AA BB H 1 08:59:01.07 0.983 00:04:47 Lost
28 Kessler Family Loft - OR 0023-AU19-NRK Hwy 150 BB H 1 08:59:22.72 0.981 00:05:09 Yes
29 Wild Wings Loft - MA 12939-AU19-JEDD RUBBLE BB C 1 09:00:27.86 0.975 00:06:15 Yes
30 Mystro - MN 13392-AU19-FOYS BCWF H 1 09:00:46.40 0.974 00:06:26 Yes
31 Charlie Barbiere - NJ 3302-IF19-BSC PRIMUS BBWF C 1 09:01:59.86 0.967 00:07:45 Yes
32 Anshutz Family Lofts - WA 4004-AU19-LKC BB H 1 09:02:47.43 0.963 00:08:30 Yes
33 Van Den Bossche Brothers - ME 9231-IF19-CMP Knight Mare DCWF H 1 09:03:06.17 0.961 00:08:53 Yes
33 Gmpineda 9 Loft - CA 3791-AU19-JEDD KW X 8095 BB C 1 09:03:12.17 0.961 00:08:53 Yes
35 385 Connection - SC 90001-AU19-SCO 2890/50014 BC H 2 09:03:42.02 0.958 00:09:28 Yes
36 Y Mtn Loft - TN 11089-AU19-AA BBWF H 2 09:04:13.62 0.955 00:10:02 Yes
37 Eastern Pearl Loft - VA 0546-AU19-EPL ๐Ÿˆš๏ธ้‡546=252x357 BB H 2 09:05:16.50 0.950 00:11:00 Yes
38 Kamp - WA 4200-AU19-LKC BB C 2 09:07:32.54 0.938 00:13:23 Yes
39 Drama Queen Loft - TX 0987-AU19-GCI BB H 1 09:08:41.06 0.933 00:14:23 Yes
40 Dragan Loft Of Pa - PA 1967-IF19-LPC BB H 1 09:09:58.78 0.926 00:15:48 Yes
40 A-Lo Loft/Nemelka - UT 9021-AU19-NRPL โ˜ฏ๏ธPhantom Thread(Fx0) BBWF C 1 09:10:02.36 0.926 00:15:48 Yes
42 Red Ass Ranch - TX 0417-AU19-RAR BB H 1 09:10:44.38 0.923 00:16:26 Yes
42 Thunder Birds/Rodriguez Breeding Loft - TX 19058-AU19-WIN Amber Alert BB H 1 09:10:44.94 0.923 00:16:26 Yes
44 Jc Loft Of Nj - NJ 4502-IF19-SOJ BB C 2 09:11:07.81 0.921 00:16:50 Yes
45 Andy Skwiat - IN 0044-AU19-ANDY BBWF C 2 09:11:35.50 0.919 00:17:15 Yes
46 Red Ass Ranch - TX 0413-AU19-RAR BB H 2 09:11:52.21 0.917 00:17:40 Yes
47 M & Y Connection - MI 0004-AU19-MY 1694 x 7224 BB H 1 09:12:04.14 0.916 00:17:53 Yes
47 Cherokee Loft - MI 0598-AU19-CHER BB H 1 09:12:05.38 0.916 00:17:53 Yes
49 Jeff Earthman - NV 1974-AU19-JEDD 454-1649 BCWF C 2 09:13:19.98 0.910 00:19:09 Yes
50 Powerstroke Loft - UT 0501-AU19-PS BB H 1 09:13:33.93 0.909 00:19:22 Yes
50 Cherokee Loft - MI 0538-AU19-CHER BC H 2 09:13:36.73 0.909 00:19:22 Yes
50 Q-Ba Family Loft - TX 0743-AU19-SAIN BB H 2 09:13:37.01 0.909 00:19:22 Yes
50 A F L - GA 0069-IF19-AFL BB H 1 09:13:41.68 0.909 00:19:22 Yes
54 98 M J - PA 0014-AU19-AJ GZ H 1 09:14:09.43 0.906 00:20:00 Yes
54 Bieche-Stevenson - CA 9346-AU19-BIEC BC H 1 09:14:18.15 0.906 00:20:00 Yes
54 Tian Loft - FL 15656-AU19-ARPU BBWF H 1 09:14:20.62 0.906 00:20:00 Yes
57 Sunshine Loft 2 - SC 0137-AU19-PAK Pak55/1551 BB H 1 09:14:23.81 0.905 00:20:13 Yes
57 Jeff Earthman - NV 1940-AU19-JEDD 8197-43 BB H 3 09:14:25.25 0.905 00:20:13 Yes
57 Morningside Racing Loft - TX 1106-AU19-MSRL 495x419 BC H 1 09:14:27.23 0.905 00:20:13 Yes
57 7 Cha Brothers Loft - MN 0360-AU19-UNIT The One Jr. x Quick Feet BC H 1 09:14:27.32 0.905 00:20:13 Yes
57 A Brother Loft - AL 53869-AU19-ARPU BB H 1 09:14:32.96 0.905 00:20:13 Yes
62 Ken Family Loft - FL 0015-AU19-XKL BC H 1 09:14:37.38 0.904 00:20:26 Yes
62 Ganus Family Loft - IN 0852-AU19-GFL BCWF C 2 09:14:40.48 0.904 00:20:26 Yes
62 Smith R.P.L. - UT 4569-AU19-SMIT BB H 1 09:14:41.98 0.904 00:20:26 Yes
62 Tom Arveson - WA 4300-AU19-LKC 4300 C 1 09:14:43.50 0.904 00:20:26 Yes
62 A F L - GA 0148-IF19-AFL BBWF C 2 09:14:45.10 0.904 00:20:26 Yes
62 Charlie Barbiere - NJ 3330-IF19-BSC MY PRAYER GRIZ H 2 09:14:46.17 0.904 00:20:26 Yes
62 Slick Hills Loft - UT 39411-AU19-ARPU BBSP C 1 09:14:47.21 0.904 00:20:26 Yes
62 Balikbayan Express - WA 0144-AU19-PSF BC C 1 09:14:47.22 0.904 00:20:26 Yes
62 Ganus Family Loft - IN 0623-AU19-GFL BBSP H 3 09:14:47.70 0.904 00:20:26 Yes
71 S F L - WV 0094-AU19-SFL Pair 1 BB C 2 09:14:50.40 0.903 00:20:39 Yes
71 Adam Hajduga - IL 7869-AU19-ARPU BB H 1 09:14:53.18 0.903 00:20:39 Yes
71 Peters - GA 0020-AU19-PETE PETERS -4 BB H 1 09:15:00.12 0.903 00:20:39 Yes
74 Wolf Den & Family Loft - IL 0055-AU19-WOLF BC H 1 09:15:02.01 0.902 00:20:52 Yes
74 Guo Fu Loft - DC 11037-AU19-AA BB H 1 09:15:03.13 0.902 00:20:52 Yes
74 Peach Classic - GA 19032-AU19-PCL BB H 1 09:15:04.17 0.902 00:20:52 Yes
74 Sierra Ranch - CA 0915-AU19-SIER BB C 1 09:15:04.26 0.902 00:20:52 Yes
74 Linda Loft - PA 0688-IF19-LU 347-Bj Lady BBWF H 3 09:15:07.29 0.902 00:20:52 Yes
74 D B J Loft - FL 1738-AU19-DBJ BC C 1 09:15:08.91 0.902 00:20:52 Yes
74 Greek Connection - SC 1400-AU19-GRK 296 BBSP H 1 09:15:09.67 0.902 00:20:52 Yes
74 Balikbayan Express - WA 0003-AU19-CEYX BC H 2 09:15:12.58 0.902 00:20:52 Yes
82 Irishsyndicatelofts - AZ 0752-IF19-IRIS BB H 1 09:15:15.09 0.901 00:21:05 Yes
82 Highland Loft - NY 9053-AU19-DZ BC C 2 09:15:16.31 0.901 00:21:05 Yes
82 Poorhouse Road Loft - VA 29701-AU19-ARPU G6 BBWF H 1 09:15:18.89 0.901 00:21:05 Yes
82 - Blue Giligit Loft - - CA 3769-AU19-JEDD BB H 1 09:15:25.15 0.901 00:21:05 Yes
86 Carini / Codd - OR 0037-AU19-CODD BB C 2 09:15:32.09 0.900 00:21:18 Yes
87 Brooklyn Loft - NY 1500-IF19-FVC BBSP C 1 09:15:40.92 0.899 00:21:31 Yes
88 Ganus Family Loft - IN 0968-AU19-GFL BB H 4 09:16:01.07 0.898 00:21:44 Yes
88 Tian Loft - FL 15689-AU19-ARPU BB C 2 09:16:02.61 0.898 00:21:44 Yes
88 Anshutz Family Lofts - WA 4005-AU19-LKC BB C 2 09:16:03.74 0.898 00:21:44 Yes
88 Skyraider - WA 9259-AU19-TCW Ludo S94 line BC H 1 09:16:04.98 0.898 00:21:44 Yes
88 385 Connection - SC 90003-AU19-SCO 3207/365 BB H 3 09:16:06.00 0.898 00:21:44 Yes
93 Tian Loft - FL 15663-AU19-ARPU BB H 3 09:16:07.29 0.897 00:21:57 Yes
93 Iditarod Loft - MT 17230-AU19-AA BB H 1 09:16:10.23 0.897 00:21:57 Yes
93 Adam Hajduga - IL 7865-AU19-ARPU BC H 2 09:16:10.31 0.897 00:21:57 Yes
96 Anshutz Family Lofts - WA 4006-AU19-LKC BC H 3 09:16:19.83 0.896 00:22:10 Yes
96 Pl Abasolo Famloft - IL 0513-AU19-LCC BB H 1 09:16:20.20 0.896 00:22:10 Yes
98 Sooner Challenge - OK 8568-AU19-TIPC 8833 TRPC X 3058 YAK BBSP H 1 09:16:38.88 0.895 00:22:23 Yes
98 Lamonta - OR 58532-AU19-ARPU BLK H 1 09:16:41.32 0.895 00:22:23 Yes
98 D B J Loft - FL 1712-AU19-DBJ BC C 2 09:16:44.69 0.895 00:22:23 Yes

There are 736 bird records

Note: These Race Results are unofficial and subject to change until verified by the Race Committee and declared final.